Temperature
11 11 10 10 10 10 10 10 10 10 10 10 10 10 10 10 10 10 10 10 10 10 10 10 10 10 10 10 10 9 9 9 9 9 9 9 10 10 10 10 10 10 10
11 10 10 10 10 9 9 9 9 10 10 10 10 10 10 10 10 10 10 10 10 10 10 10 10 10 10 9 9 9 9 9 9 8 8 8 9 9 9 10 10 10 10
10 10 10 9 9 9 9 9 9 9 9 9 9 9 9 9 9 9 9 10 9 9 10 10 10 10 9 9 9 9 9 9 8 8 8 8 8 8 9 9 9 9 9
10 9 9 9 8 8 8 8 8 9 9 9 9 9 9 9 9 9 9 9 9 9 9 9 9 9 9 9 9 9 8 8 8 8 8 8 8 8 8 8 9 9 9
9 8 8 8 8 8 8 8 8 8 8 8 8 8 8 8 8 8 9 9 9 9 9 9 9 9 9 9 8 8 8 8 8 8 8 8 8 8 8 8 8 8 8
8 7 7 7 7 7 7 7 7 7 8 8 8 8 8 8 8 8 8 8 8 8 8 8 8 9 9 9 8 8 8 8 8 8 8 8 7 8 8 7 7 7 8
7 7 6 6 6 6 6 6 7 7 7 7 7 7 7 7 7 8 8 8 8 8 8 8 8 8 8 8 8 8 8 8 7 7 7 7 7 7 7 7 7 7 7
6 5 5 5 5 5 5 6 6 6 6 6 6 7 7 7 7 7 7 7 7 8 8 8 8 8 8 8 8 7 7 7 7 7 7 7 7 7 7 7 7 6 6
5 5 4 4 4 4 5 5 5 6 6 6 6 6 6 6 6 6 7 7 7 7 7 7 7 7 8 7 7 7 7 7 7 7 7 7 7 7 6 6 6 6 6
4 4 4 4 4 4 4 4 5 5 5 5 5 5 6 6 6 6 6 6 6 7 7 7 7 7 7 7 7 6 6 6 6 6 6 6 6 6 6 6 6 6 6
4 3 3 3 3 4 4 4 4 4 4 4 4 5 5 5 5 5 6 6 6 6 6 6 6 7 7 6 6 6 6 6 6 6 6 6 6 6 6 6 6 5 5
3 3 3 3 3 3 3 3 3 4 4 4 4 4 4 5 5 5 5 5 5 5 6 6 6 6 6 6 6 6 6 6 6 5 5 5 5 5 5 5 5 5 5
3 2 2 2 2 2 2 2 3 3 3 3 3 3 4 4 4 4 5 5 5 5 5 5 5 5 5 5 6 6 6 5 5 5 5 5 5 5 5 5 5 4 4
2 2 1 1 1 1 1 2 2 2 2 3 3 3 3 3 4 4 4 4 4 5 5 5 5 5 5 5 5 5 5 5 5 5 5 5 5 5 5 4 4 4 4
1 1 1 1 1 1 1 1 1 1 2 2 2 2 2 3 3 3 3 4 4 4 4 4 4 4 4 4 4 4 4 4 4 4 4 4 4 4 4 4 4 4 4
1 0 0 0 0 0 0 0 1 1 1 1 1 1 2 2 2 3 3 3 3 3 3 4 4 4 4 4 4 4 4 4 4 4 4 4 4 4 4 3 3 3 3
0 -0 -0 -0 -0 -0 -0 -0 0 0 0 0 0 1 1 1 1 2 2 2 2 3 3 3 3 3 3 3 3 3 3 3 3 3 3 3 3 3 3 3 3 3 3
-1 -1 -1 -1 -1 -1 -1 -1 -0 -0 -0 -0 -0 0 0 1 1 1 1 1 1 2 2 2 2 3 3 3 3 3 3 3 3 3 3 3 3 3 3 2 2 2 2
-1 -1 -1 -1 -1 -1 -1 -1 -1 -1 -1 -1 -1 -0 -0 -0 0 0 0 0 1 1 1 1 2 2 2 2 2 2 2 2 2 2 2 2 2 2 2 2 2 2 2
-1 -1 -1 -1 -1 -1 -1 -1 -1 -1 -1 -1 -1 -1 -1 -1 -1 -1 -0 -0 -0 0 0 1 1 1 1 1 2 2 2 2 2 1 1 1 1 1 1 1 1 1 1
-2 -2 -2 -2 -2 -2 -2 -2 -2 -2 -2 -2 -2 -1 -1 -1 -1 -1 -1 -1 -1 -0 -0 0 0 1 1 1 1 1 1 1 1 1 1 1 1 1 1 1 1 1 1
-2 -2 -2 -2 -2 -2 -2 -2 -2 -2 -2 -2 -2 -2 -2 -2 -2 -1 -1 -1 -1 -1 -1 -1 -0 -0 -0 0 0 1 1 1 0 0 1 1 0 0 1 0 0 0 -0
-3 -3 -3 -3 -3 -3 -3 -3 -3 -3 -3 -3 -3 -2 -2 -2 -2 -2 -2 -2 -2 -1 -1 -1 -1 -1 -1 -1 -0 -0 -0 -0 -0 -0 -0 -0 -0 -0 -0 -0 -0 -0 -0
-3 -3 -3 -3 -3 -3 -3 -3 -3 -3 -3 -3 -3 -3 -2 -2 -2 -2 -2 -2 -2 -2 -2 -2 -2 -2 -2 -1 -1 -1 -1 -1 -1 -1 -1 -1 -1 -0 -1 -1 -1 -1 -1
-4 -3 -3 -3 -3 -3 -3 -3 -3 -3 -3 -3 -3 -3 -3 -3 -3 -3 -3 -2 -2 -2 -2 -2 -2 -2 -2 -2 -2 -1 -1 -1 -1 -1 -1 -1 -1 -1 -1 -1 -1 -1 -2
-4 -4 -4 -3 -4 -3 -3 -3 -3 -3 -3 -3 -3 -3 -3 -3 -3 -3 -3 -3 -3 -2 -2 -2 -2 -2 -2 -2 -2 -2 -2 -2 -2 -2 -2 -2 -2 -2 -2 -2 -2 -2 -2
Wind_Speed
4 4 3 3 3 3 4 5 5 5 4 4 5 5 5 5 5 5 8 9 9 9 7 5 6 6 5 5 4 3 3 2 1 1 1 2 2 3 3 3 3 4 5
3 3 3 3 3 4 4 5 5 6 5 5 5 5 5 5 5 5 6 8 9 9 8 7 6 6 5 6 5 4 3 2 3 2 1 1 2 2 3 3 3 4 5
3 3 3 3 2 3 4 4 5 5 5 5 4 4 4 3 4 5 5 6 8 8 8 8 7 6 6 6 6 6 5 4 3 3 3 2 3 2 2 3 3 3 3
2 1 2 2 3 4 4 4 5 5 6 5 5 6 6 6 5 5 5 5 7 7 8 8 8 7 6 6 6 6 4 5 4 3 3 2 2 2 2 2 2 3 3
2 2 2 2 3 3 3 4 4 5 5 6 6 6 6 5 4 5 6 6 6 7 8 8 8 7 6 6 6 6 5 5 4 3 2 3 2 2 2 3 3 3 3
2 2 2 2 2 3 2 3 4 4 5 5 5 6 7 6 6 6 7 6 5 5 7 7 7 7 7 7 7 6 6 5 5 4 3 3 2 3 3 3 3 4 3
3 3 3 3 3 3 3 3 4 4 4 4 4 6 6 7 8 7 7 6 5 5 6 6 6 6 7 7 7 7 7 6 6 6 4 4 3 2 3 3 3 3 3
4 5 4 4 3 3 3 3 3 4 3 3 4 5 5 5 5 5 5 6 6 6 6 6 6 7 8 7 6 6 6 6 6 6 5 4 4 3 3 3 3 3 3
5 5 5 4 4 4 3 3 3 2 2 2 3 3 3 4 4 4 4 5 5 5 7 7 7 7 7 7 7 5 6 5 5 5 5 4 4 3 3 3 3 4 4
4 4 4 4 4 3 3 1 1 1 1 2 2 2 2 2 3 4 4 4 5 5 6 7 7 7 7 7 7 5 5 6 5 5 5 5 3 3 3 3 3 4 5
3 4 4 4 3 3 3 2 1 1 1 2 2 2 2 1 2 3 4 4 4 5 6 7 7 8 8 8 7 7 7 7 6 5 5 5 4 4 3 3 3 3 3
3 4 4 4 4 4 3 3 2 1 1 1 2 2 2 1 1 2 3 3 4 4 5 6 7 7 7 8 8 8 7 7 7 6 5 6 5 5 4 4 4 4 4
4 4 5 4 4 4 4 4 3 3 2 2 2 2 2 1 2 2 2 3 3 4 5 6 7 7 7 8 8 8 8 7 7 7 7 6 6 5 4 4 4 4 4
4 5 5 4 4 4 4 4 4 4 3 3 2 2 2 2 2 2 2 2 2 3 4 5 5 6 7 7 7 7 7 6 6 6 6 6 6 6 5 4 4 4 4
5 5 5 4 4 4 4 4 4 4 4 3 3 3 2 2 2 2 2 2 2 3 3 4 4 5 5 6 7 7 7 7 6 5 5 5 5 6 5 4 4 4 4
5 5 6 6 5 5 5 5 4 4 4 3 3 3 3 2 2 2 2 2 2 2 3 4 5 5 4 6 8 7 6 6 6 5 4 4 5 5 6 6 6 6 5
6 6 6 6 6 5 5 5 4 4 3 3 3 3 3 3 3 3 2 3 2 2 2 4 4 4 5 7 8 7 5 5 5 6 5 4 4 5 4 4 5 5 6
6 5 5 6 6 6 5 5 5 4 4 3 3 3 3 3 3 3 3 3 3 2 2 2 3 4 4 6 7 7 5 4 5 5 5 5 4 4 4 3 2 2 2
6 5 5 5 5 5 4 4 4 4 4 4 4 3 3 3 3 3 3 3 3 2 2 1 1 2 3 6 6 5 4 4 4 4 4 4 4 6 5 3 3 2 1
6 5 5 5 5 5 4 4 4 4 5 5 4 4 3 3 3 4 4 3 3 2 2 1 1 1 2 3 5 4 3 4 3 3 3 5 5 6 5 4 4 3 2
6 6 5 5 5 5 4 4 4 4 4 4 4 4 3 3 3 4 4 3 3 1 2 2 1 1 1 2 2 3 2 3 3 3 3 3 5 6 5 3 3 4 2
7 6 5 5 5 5 4 4 5 5 5 4 4 4 4 3 3 3 3 3 3 1 1 1 1 1 0 0 1 1 1 1 2 2 2 3 4 4 3 2 3 3 1
6 5 4 4 4 4 4 4 5 5 5 4 4 4 4 3 3 2 2 2 2 1 1 0 1 1 0 0 1 1 1 1 0 1 2 3 3 2 2 3 3 2 2
6 5 5 4 4 5 5 4 5 5 4 5 4 4 3 3 3 2 2 2 1 1 1 0 0 1 0 0 0 1 1 1 1 1 2 2 2 2 2 2 1 1 1
5 5 4 4 5 5 5 5 5 5 5 5 4 4 3 3 2 2 2 2 2 2 1 1 1 1 1 2 1 1 1 1 2 2 2 2 2 2 1 1 1 1 1
5 5 5 5 5 5 6 6 5 4 5 5 4 3 3 2 2 2 3 3 3 4 3 2 2 2 2 2 1 1 1 2 2 2 2 2 2 2 2 2 1 1 1
Wind_Direction
226 207 211 209 208 201 199 198 196 205 200 199 200 200 207 203 193 193 188 182 179 179 177 180 178 177 183 184 183 178 172 186 161 95 302 290 253 227 213 209 196 189 192
225 214 206 203 210 212 207 207 209 207 209 208 207 205 205 206 196 193 190 185 183 184 184 185 187 186 184 183 186 179 184 196 173 166 170 235 279 264 230 211 203 202 192
233 234 220 213 219 229 222 221 221 217 212 213 210 208 200 200 199 196 196 192 184 185 182 185 187 190 188 191 193 189 184 195 201 188 180 189 217 269 253 233 214 206 204
240 265 277 254 243 241 233 231 231 223 214 206 204 207 209 209 203 195 192 189 185 184 183 183 187 193 192 195 198 197 193 184 203 220 223 218 188 188 246 265 243 233 226
30 354 330 294 273 272 250 242 244 234 223 210 207 213 222 221 197 188 187 192 194 190 185 183 184 193 193 194 197 197 197 197 202 206 217 243 254 226 218 251 251 258 250
21 354 338 327 300 292 271 258 255 248 232 219 212 214 219 213 201 195 193 195 199 197 189 186 188 192 192 193 195 195 198 203 206 208 204 205 209 219 219 240 245 251 255
10 358 344 335 313 303 278 261 252 257 246 230 228 224 221 211 207 203 199 197 199 201 195 194 192 195 193 191 189 193 198 201 205 211 215 214 221 213 218 229 244 259 267
14 2 348 336 323 310 291 278 259 256 241 240 249 245 226 209 207 213 207 205 204 201 197 196 199 202 193 193 189 193 200 199 205 214 212 215 222 217 218 216 213 257 267
10 353 340 338 330 316 295 280 263 260 257 260 280 247 220 207 205 209 213 212 203 201 198 199 201 201 191 189 189 196 200 197 202 206 209 212 218 214 221 223 206 210 249
358 350 340 336 326 314 302 286 250 269 299 291 277 276 236 215 208 205 211 211 208 203 200 204 203 199 191 189 190 193 194 195 202 202 203 211 211 208 213 220 225 220 225
350 348 343 345 342 340 348 347 8 7 328 295 291 283 277 262 224 210 210 207 210 206 206 206 203 198 195 190 191 194 192 196 200 200 201 208 201 201 207 215 221 229 222
1 354 351 354 353 352 359 348 347 352 319 294 295 288 280 282 259 237 225 210 208 210 210 202 199 199 198 193 193 195 196 195 196 198 199 204 203 200 202 210 218 225 225
357 356 355 354 351 355 352 349 352 351 342 335 323 309 300 295 289 286 259 221 208 210 210 205 201 199 199 198 196 195 194 194 197 196 199 200 197 204 206 212 218 227 231
352 348 346 344 347 351 354 353 351 349 344 346 339 318 310 311 307 313 304 263 226 214 208 210 205 200 201 199 195 193 190 194 196 196 200 202 201 201 204 215 218 221 222
353 346 339 339 344 349 350 350 345 343 343 341 334 321 317 321 328 317 308 305 274 251 223 213 203 199 199 198 190 188 188 185 189 192 202 207 207 213 217 221 213 213 220
338 341 341 339 341 345 342 342 337 339 340 332 327 326 332 333 328 310 311 301 285 269 244 220 204 203 209 201 199 193 182 183 186 188 193 197 201 211 228 239 230 222 221
332 333 335 340 346 343 339 336 331 333 336 328 326 334 336 332 326 315 310 301 290 292 273 229 204 205 202 201 199 194 183 185 191 189 187 203 208 209 201 228 238 242 240
329 333 335 335 335 334 337 340 342 339 335 333 333 335 330 323 325 323 315 309 314 300 284 241 211 208 206 206 202 194 185 185 192 193 193 192 194 202 195 197 206 222 242
327 329 325 324 330 332 337 345 344 338 336 335 333 333 329 321 323 319 315 318 320 313 302 269 219 199 205 208 202 191 178 185 193 193 195 190 192 208 203 184 190 216 259
338 338 336 342 342 339 342 345 338 338 334 330 326 330 330 325 322 324 321 320 320 318 315 288 231 194 195 204 197 190 174 176 182 184 187 201 203 206 207 189 184 205 230
338 339 343 345 337 337 341 336 333 328 322 323 323 325 325 322 321 325 325 324 321 318 319 300 281 198 186 182 185 192 180 179 179 185 186 198 209 212 219 212 203 212 217
340 341 344 342 342 345 342 338 334 327 327 325 322 319 320 319 319 322 327 330 333 338 329 321 342 330 172 116 185 212 227 198 178 190 185 189 200 212 214 209 193 190 196
335 336 339 340 345 350 349 339 327 329 326 323 316 310 314 315 314 315 318 321 328 329 323 311 299 297 360 315 298 282 232 251 184 172 176 181 186 183 165 169 174 157 147
332 334 340 341 340 343 343 332 325 328 327 322 316 312 310 309 312 307 301 306 308 299 289 277 283 295 308 151 183 148 111 87 81 128 156 161 141 122 133 145 140 134 158
329 333 335 332 327 329 330 329 327 327 322 318 317 313 306 298 300 300 293 288 278 267 238 228 223 227 249 258 263 179 163 162 155 137 136 139 137 127 126 105 102 105 111
325 328 328 328 327 330 328 327 327 325 320 320 322 316 312 306 304 304 311 306 286 303 301 284 263 261 275 276 252 225 175 147 137 128 149 162 167 168 166 166 166 154 162
Height
1458 1459 1460 1461 1461 1462 1463 1464 1465 1466 1468 1470 1471 1472 1474 1476 1479 1481 1484 1486 1488 1491 1493 1495 1497 1499 1500 1502 1504 1506 1507 1509 1511 1512 1512 1512 1513 1513 1514 1515 1515 1516 1517
1454 1455 1456 1457 1457 1458 1459 1459 1460 1462 1463 1465 1467 1468 1471 1472 1474 1477 1479 1482 1484 1486 1489 1491 1493 1495 1496 1498 1500 1502 1504 1505 1507 1509 1509 1509 1510 1509 1510 1511 1511 1512 1513
1450 1452 1453 1453 1453 1454 1455 1455 1456 1457 1459 1461 1463 1465 1467 1468 1470 1472 1474 1477 1479 1482 1484 1486 1489 1490 1492 1494 1496 1498 1500 1501 1503 1505 1507 1507 1505 1506 1505 1506 1507 1508 1508
1447 1448 1449 1450 1450 1450 1451 1451 1452 1453 1454 1456 1457 1459 1460 1461 1463 1466 1469 1472 1475 1477 1479 1482 1484 1486 1487 1489 1491 1493 1495 1497 1498 1500 1502 1504 1503 1504 1502 1502 1502 1503 1504
1444 1445 1446 1446 1446 1446 1446 1447 1447 1448 1450 1452 1453 1455 1456 1457 1459 1462 1464 1467 1470 1473 1475 1477 1479 1480 1483 1485 1487 1489 1491 1492 1494 1495 1497 1499 1500 1500 1500 1498 1498 1498 1499
1442 1443 1443 1443 1443 1442 1442 1442 1443 1444 1445 1447 1449 1450 1451 1453 1455 1456 1459 1461 1464 1467 1469 1471 1473 1475 1477 1479 1481 1484 1486 1487 1489 1491 1492 1494 1495 1495 1496 1495 1494 1494 1494
1440 1440 1440 1440 1439 1439 1438 1438 1439 1439 1441 1442 1444 1446 1447 1449 1450 1451 1454 1456 1458 1460 1463 1465 1468 1470 1472 1474 1476 1478 1480 1482 1484 1486 1487 1489 1490 1491 1492 1492 1490 1490 1490
1439 1439 1438 1437 1436 1436 1435 1435 1435 1436 1437 1438 1440 1441 1443 1444 1446 1447 1449 1451 1452 1455 1458 1460 1462 1464 1467 1469 1471 1473 1475 1477 1479 1481 1482 1484 1485 1486 1487 1488 1487 1486 1485
1437 1437 1436 1434 1434 1433 1433 1432 1432 1433 1434 1434 1435 1436 1438 1439 1441 1443 1445 1446 1448 1450 1453 1455 1457 1459 1461 1463 1465 1467 1469 1471 1473 1475 1477 1478 1480 1481 1482 1483 1483 1484 1481
1437 1435 1434 1432 1431 1430 1430 1430 1430 1430 1430 1431 1431 1432 1433 1435 1437 1438 1440 1441 1443 1445 1447 1449 1451 1453 1455 1458 1460 1462 1464 1466 1468 1470 1471 1473 1474 1475 1477 1478 1478 1478 1478
1436 1434 1433 1431 1429 1428 1428 1427 1428 1428 1428 1428 1428 1429 1430 1431 1433 1434 1435 1437 1439 1440 1441 1443 1445 1447 1449 1452 1454 1456 1458 1460 1462 1464 1466 1467 1469 1470 1471 1472 1472 1473 1473
1435 1434 1432 1430 1428 1427 1426 1426 1426 1425 1425 1425 1425 1426 1426 1427 1428 1429 1431 1432 1434 1435 1436 1438 1440 1441 1444 1446 1448 1451 1453 1455 1457 1458 1460 1462 1463 1464 1465 1466 1466 1467 1467
1434 1433 1431 1429 1428 1427 1426 1425 1424 1423 1423 1423 1422 1423 1423 1424 1424 1425 1427 1428 1429 1431 1433 1433 1434 1436 1439 1441 1443 1445 1447 1450 1451 1453 1455 1456 1457 1458 1459 1460 1461 1462 1462
1434 1432 1431 1429 1427 1426 1425 1424 1422 1422 1421 1421 1421 1420 1421 1421 1421 1422 1423 1424 1426 1427 1428 1429 1430 1431 1434 1436 1437 1440 1442 1444 1446 1448 1449 1451 1452 1453 1454 1455 1455 1456 1457
1433 1432 1430 1429 1427 1425 1424 1422 1421 1420 1420 1419 1419 1418 1419 1418 1419 1419 1420 1420 1421 1422 1423 1424 1425 1427 1428 1430 1432 1434 1436 1438 1440 1442 1444 1445 1446 1448 1449 1450 1450 1451 1452
1432 1431 1429 1428 1425 1424 1422 1421 1420 1419 1418 1417 1417 1417 1416 1416 1416 1416 1416 1417 1418 1418 1419 1420 1421 1422 1424 1426 1428 1430 1431 1433 1435 1436 1438 1439 1441 1442 1443 1445 1446 1447 1447
1432 1430 1428 1425 1424 1422 1421 1419 1418 1417 1416 1416 1415 1414 1414 1414 1413 1413 1414 1414 1414 1413 1414 1415 1416 1417 1419 1422 1424 1425 1426 1428 1430 1431 1432 1434 1435 1437 1438 1439 1440 1441 1442
1431 1428 1426 1424 1422 1421 1419 1418 1416 1415 1414 1413 1412 1412 1412 1411 1411 1411 1411 1411 1410 1410 1411 1411 1412 1413 1415 1418 1419 1421 1422 1423 1425 1427 1428 1429 1430 1432 1433 1434 1435 1435 1436
1429 1427 1425 1422 1420 1418 1417 1415 1414 1413 1412 1411 1410 1410 1410 1409 1409 1409 1408 1408 1407 1406 1407 1408 1408 1410 1411 1413 1415 1417 1418 1419 1420 1422 1423 1425 1426 1427 1428 1429 1430 1430 1431
1427 1424 1422 1420 1418 1416 1414 1413 1412 1411 1410 1409 1409 1408 1408 1407 1407 1406 1406 1405 1404 1404 1405 1405 1405 1406 1407 1409 1410 1413 1414 1415 1416 1418 1419 1421 1422 1423 1424 1425 1426 1426 1426
1425 1423 1421 1418 1416 1415 1413 1412 1411 1410 1409 1408 1407 1406 1406 1406 1405 1405 1404 1403 1402 1402 1402 1402 1402 1403 1404 1405 1407 1409 1410 1411 1412 1413 1415 1416 1418 1419 1420 1421 1422 1422 1423
1424 1422 1419 1417 1416 1414 1412 1410 1409 1408 1407 1406 1405 1405 1404 1404 1404 1403 1402 1402 1401 1400 1399 1400 1400 1401 1402 1403 1405 1406 1407 1408 1409 1410 1411 1413 1414 1416 1417 1418 1418 1419 1419
1422 1420 1418 1416 1415 1413 1412 1409 1408 1407 1406 1405 1404 1403 1403 1402 1402 1401 1401 1400 1399 1398 1398 1398 1399 1400 1401 1402 1403 1404 1405 1406 1407 1407 1409 1410 1411 1413 1414 1415 1415 1415 1416
1421 1419 1417 1415 1413 1412 1410 1409 1407 1405 1404 1403 1402 1401 1401 1400 1400 1399 1399 1398 1398 1397 1397 1397 1398 1399 1399 1400 1401 1401 1402 1403 1404 1405 1406 1407 1408 1410 1411 1412 1412 1412 1412
1419 1418 1416 1414 1412 1411 1409 1408 1406 1404 1402 1401 1400 1399 1398 1398 1397 1397 1396 1396 1396 1396 1396 1396 1396 1397 1397 1398 1399 1399 1400 1401 1402 1403 1403 1404 1405 1406 1407 1408 1409 1409 1410
1419 1417 1415 1413 1411 1409 1407 1406 1404 1403 1401 1399 1398 1397 1396 1396 1395 1394 1394 1394 1394 1394 1394 1395 1396 1396 1396 1397 1397 1398 1398 1399 1400 1400 1400 1402 1403 1404 1405 1405 1406 1407 1407